Weather History for Shepherd Bay, NU

Change the Weather History Date:

Sunday, January 20, 2013

  Actual Average Record
Temperature  
Mean Temperature -28 °F -  
Max Temperature -22 °F - - ()
Min Temperature -35 °F - - ()
Degree Days  
Heating Degree Days 94    
Moisture  
Dew Point -    
Average Humidity    
Maximum Humidity    
Minimum Humidity    
Precipitation  
Precipitation 0.00 in - - ()
Sea Level Pressure  
Sea Level Pressure 29.82 in    
Wind  
Wind Speed 7 mph ()    
Max Wind Speed 13 mph    
Max Gust Speed -    
Visibility 6.7 miles    
Events      
T = Trace of Precipitation, MM = Missing Value Source: Averaged Metar Reports

Daily Weather History Graph

Daily Weather History Graph

Search for Another Location

Airport:

Trip Planner

Search our weather history database for the weather conditions in past years. The results will help you decide how hot, cold, wet, or windy it might be!

Date:

Astronomy

Jan. 20, 2013 Rise Set
Actual Time 10:39 AM CST 2:11 PM CST
Civil Twilight 9:01 AM CST 3:49 PM CST
Nautical Twilight 7:41 AM CST 5:09 PM CST
Astronomical Twilight 6:31 AM CST 6:19 PM CST
Moon 9:35 AM CST (1/20) 4:44 AM CST (1/20)
Length of Visible Light 6h 48m
Length of Day
3h 32m
Waxing Gibbous, 66% of the Moon is Illuminated
Jan 20
Waxing Gibbous
Jan 26
Full
Feb 3
Last Quarter
Feb 10
New
Feb 17
First Quarter

Hourly Weather History & Observations

Time (CST) Temp. Windchill Dew Point Humidity Pressure Visibility Wind Dir Wind Speed Gust Speed Precip Events Conditions
12:00 AM -35 °F - - % 29.80 in 9 mi WSW 4.6 mph - -  
12:00 AM -34.6 °F -50.3 °F - N/A% 29.80 in 9.0 mi WSW 4.6 mph - N/A   Unknown
1:00 AM -34.6 °F -52.6 °F - N/A% 29.81 in 9.0 mi WSW 5.8 mph - N/A   Unknown
1:27 AM -34.6 °F -56.3 °F - N/A% 29.78 in 9.0 mi WSW 8.1 mph - N/A   Unknown
2:00 AM -34.6 °F -54.6 °F - N/A% 29.82 in 8.0 mi WSW 6.9 mph - N/A   Unknown
2:26 AM -34.6 °F -54.6 °F - N/A% 29.78 in 7.0 mi WSW 6.9 mph - N/A   Unknown
2:42 AM -34.6 °F -54.6 °F - N/A% 29.79 in 7.0 mi WSW 6.9 mph - N/A   Unknown
3:00 AM -34 °F - - % 29.83 in 7 mi WSW 8.1 mph - -  
3:00 AM -34.6 °F -54.6 °F - N/A% 29.83 in 8.0 mi WSW 6.9 mph - N/A   Unknown
4:00 AM -32.8 °F -52.4 °F - N/A% 29.83 in 6.0 mi SW 6.9 mph - N/A   Unknown
5:00 AM -31.0 °F -50.3 °F - N/A% 29.84 in 6.0 mi WSW 6.9 mph - N/A   Unknown
5:34 AM -29.2 °F -49.7 °F - N/A% 29.81 in 5.0 mi SW 8.1 mph - N/A   Unknown
6:00 AM -28 °F - - % 29.84 in 9 mi SW 8.1 mph - -  
6:00 AM -29.2 °F -49.7 °F - N/A% 29.84 in 9.0 mi SW 8.1 mph - N/A   Unknown
6:30 AM -27.4 °F -47.6 °F - N/A% 29.81 in 9.0 mi WSW 8.1 mph - N/A   Unknown
6:51 AM -27.4 °F -45.9 °F - N/A% 29.81 in 9.0 mi WSW 6.9 mph - N/A   Unknown
7:00 AM -27.4 °F -45.9 °F - N/A% 29.84 in 9.0 mi WSW 6.9 mph - N/A   Unknown
7:49 AM -27.4 °F -41.9 °F - N/A% 29.81 in 9.0 mi WSW 4.6 mph - N/A   Unknown
7:50 AM -27.4 °F -41.9 °F - N/A% 29.81 in 9.0 mi WSW 4.6 mph - N/A   Unknown
7:53 AM -27.4 °F -41.9 °F - N/A% 29.81 in 9.0 mi WSW 4.6 mph - N/A   Unknown
8:00 AM -27.4 °F -44.1 °F - N/A% 29.84 in 9.0 mi WSW 5.8 mph - N/A   Unknown
8:38 AM -27.4 °F -44.1 °F - N/A% 29.81 in 9.0 mi WSW 5.8 mph - N/A   Unknown
9:00 AM -27 °F - - % 29.84 in 9 mi WSW 5.8 mph - -  
9:00 AM -27.4 °F -44.1 °F - N/A% 29.84 in 9.0 mi WSW 5.8 mph - N/A   Unknown
10:00 AM -23.8 °F -39.8 °F - N/A% 29.83 in 7.0 mi West 5.8 mph - N/A   Unknown
10:18 AM -23.8 °F -46.9 °F - N/A% 29.80 in 7.0 mi WNW 11.5 mph - N/A   Unknown
10:19 AM -23.8 °F -46.9 °F - N/A% 29.80 in 7.0 mi WNW 11.5 mph - N/A   Unknown
10:36 AM -22.0 °F -44.7 °F - N/A% 29.80 in 9.0 mi WNW 11.5 mph - N/A   Unknown
10:37 AM -22.0 °F -44.7 °F - N/A% 29.80 in 9.0 mi WNW 11.5 mph - N/A   Unknown
10:46 AM -23.8 °F -45.8 °F - N/A% 29.80 in 9.0 mi NW 10.4 mph - N/A   Unknown
11:00 AM -23.8 °F -48.0 °F - N/A% 29.83 in 3.0 mi NW 12.7 mph - N/A   Unknown
11:11 AM -23.8 °F -48.0 °F - N/A% 29.81 in 3.0 mi NW 12.7 mph - N/A   Unknown
11:13 AM -23.8 °F -48.0 °F - N/A% 29.81 in 3.5 mi NW 12.7 mph - N/A   Unknown
11:17 AM -23.8 °F -46.9 °F - N/A% 29.81 in 3.5 mi NW 11.5 mph - N/A   Unknown
11:33 AM -23.8 °F -44.5 °F - N/A% 29.81 in 2.0 mi NW 9.2 mph - N/A   Unknown
11:34 AM -23.8 °F -45.8 °F - N/A% 29.81 in 1.4 mi NW 10.4 mph - N/A   Unknown
11:39 AM -23.8 °F -45.8 °F - N/A% 29.81 in 1.1 mi NW 10.4 mph - N/A   Unknown
11:44 AM -23.8 °F -46.9 °F - N/A% 29.80 in 1.4 mi NW 11.5 mph - N/A   Unknown
11:45 AM -23.8 °F -45.8 °F - N/A% 29.80 in 3.5 mi NW 10.4 mph - N/A   Unknown
11:49 AM -23.8 °F -45.8 °F - N/A% 29.80 in 4.0 mi NW 10.4 mph - N/A   Unknown
12:00 PM -25 °F - - % 29.83 in 5 mi NW 11.5 mph - -  
12:00 PM -25.6 °F -50.2 °F - N/A% 29.83 in 5.0 mi NW 12.7 mph - N/A   Unknown
1:00 PM -23.8 °F -46.9 °F - N/A% 29.84 in 9.0 mi NW 11.5 mph - N/A   Unknown
2:00 PM -27.4 °F -51.4 °F - N/A% 29.85 in 9.0 mi West 11.5 mph - N/A   Unknown
3:00 PM -26 °F - - % 29.85 in 9 mi WNW 11.5 mph - -  
3:00 PM -25.6 °F -49.2 °F - N/A% 29.85 in 9.0 mi WNW 11.5 mph - N/A   Unknown
4:00 PM -25.6 °F -50.2 °F - N/A% 29.84 in 6.0 mi West 12.7 mph - N/A   Unknown
5:00 PM -23.8 °F -45.8 °F - N/A% 29.86 in 8.0 mi WNW 10.4 mph - N/A   Unknown
6:00 PM -22 °F - - % 29.84 in 3 mi WNW 9.2 mph - -  
6:00 PM -22.0 °F -43.6 °F - N/A% 29.84 in 3.0 mi WNW 10.4 mph - N/A   Unknown
6:35 PM -22.0 °F -41.0 °F - N/A% 29.81 in 6.0 mi West 8.1 mph - N/A   Unknown
7:00 PM -22.0 °F -43.6 °F - N/A% 29.83 in 7.0 mi West 10.4 mph - N/A   Unknown
7:22 PM -22.0 °F -42.3 °F - N/A% 29.81 in 5.0 mi West 9.2 mph - N/A   Unknown
8:00 PM -22.0 °F -42.3 °F - N/A% 29.83 in 3.5 mi West 9.2 mph - N/A   Unknown
9:00 PM -24 °F - - % 29.82 in 5 mi West 6.9 mph - -  
9:00 PM -23.8 °F -39.8 °F - N/A% 29.82 in 5.0 mi West 5.8 mph - N/A   Unknown
10:00 PM -29.2 °F -48.1 °F - N/A% 29.81 in 9.0 mi West 6.9 mph - N/A   Unknown
11:00 PM -27.4 °F -44.1 °F - N/A% 29.80 in 8.0 mi West 5.8 mph - N/A   Unknown